Regional Weather Roundup
Issued by NWS Goodland, KS

Home | Current Version | Previous Version | Graphics & Text | Print | Product List | Glossary On
Versions: 1 2 3 4 5 6 7 8 9 10 11 12 13 14 15 16 17 18 19 20 21 22 23 24 25 26 27 28 29 30 31 32 33 34 35 36 37 38 39 40 41 42 43 44 45 46 47 48 49 50
000
ASUS43 KGLD 302259
RWRGLD

GOODLAND FORECAST AREA HOURLY WEATHER ROUNDUP
NATIONAL WEATHER SERVICE GOODLAND KS
500 PM MDT TUE JUN 30 2015

...OFFICIAL OBSERVATIONS...

CITY           SKY/WX    TMP DP  RH WIND       PRES   REMARKS
GOODLAND KS    SUNNY     95  47  19 SW13      29.93F
HILL CITY KS   PTSUNNY  102  46  15 W9        29.83F
IMPERIAL NEB   PTSUNNY   95  52  23 W6        29.88F
MCCOOK NEB     MOSUNNY  100  48  17 CALM      29.84F
AKRON CO       MOSUNNY   93  46  19 N6        30.01S
BURLINGTON CO  SUNNY     94  46  19 VRB6      29.98F
LIMON CO       SUNNY     86  53  32 S7        30.08F
$$

...UNOFFICIAL OBSERVATIONS...

CITY           SKY/WX    TMP DP  RH WIND       PRES   REMARKS
COLBY KS       SUNNY     99  54  22 SW9G18    29.91F
GOVE KS          N/A    100  32   9 MISG        N/A
NORTON KS      MOSUNNY   99  36  11 SW7       29.83F
SHARON SPRINGS   N/A     97  48  18 S12G18      N/A
KIT CARSON CO    N/A     94  49  21 MISG        N/A
YUMA CO          N/A     96  46  17 CALM        N/A
$$


USA.gov is the U.S. government's official web portal to all federal, state and local government web resources and services.